Weather History for Fort Bridger AP, Fort Bridger, WY

Change the Weather History Date:

Thursday, March 13, 2014

  Actual Average (KEVW) Record (KEVW)
Temperature  
Mean Temperature 38 °F 30 °F  
Max Temperature 49 °F 39 °F 55 °F (2003)
Min Temperature 26 °F 21 °F 9 °F (2006)
Degree Days  
Heating Degree Days 28 35  
Month to date heating degree days 481  
Since 1 July heating degree days 6489  
Cooling Degree Days 0 0  
Month to date cooling degree days 0  
Year to date cooling degree days 0  
Moisture  
Dew Point 13 °F    
Average Humidity 41    
Maximum Humidity 67    
Minimum Humidity 18    
Precipitation  
Precipitation 0.00 in 0.02 in 0.06 in (2002)
Month to date precipitation 0.27  
Year to date precipitation 1.42  
Sea Level Pressure  
Sea Level Pressure 30.10 in    
Wind  
Wind Speed 11 mph (West)    
Max Wind Speed 24 mph    
Max Gust Speed 32 mph    
Visibility 10 miles    
Events      
T = Trace of Precipitation, MM = Missing Value Source: NWS Daily Summary

Daily Weather History Graph

Daily Weather History Graph

Search for Another Location

Airport:

Trip Planner

Search our weather history database for the weather conditions in past years. The results will help you decide how hot, cold, wet, or windy it might be!

Date:

Astronomy

Mar. 13, 2014 Rise Set
Actual Time 7:36 AM MDT 7:26 PM MDT
Civil Twilight 7:09 AM MDT 7:53 PM MDT
Nautical Twilight 6:36 AM MDT 8:25 PM MDT
Astronomical Twilight 6:04 AM MDT 8:58 PM MDT
Moon 4:53 PM MDT (3/13) 5:47 AM MDT (3/13)
Length of Visible Light 12h 44m
Length of Day
11h 49m
Waxing Gibbous, 92% of the Moon is Illuminated
Mar 13
Waxing Gibbous
Mar 16
Full
Mar 23
Last Quarter
Mar 30
New
Apr 7
First Quarter

Hourly Weather History & Observations

Time (MDT) Temp. Windchill Dew Point Humidity Pressure Visibility Wind Dir Wind Speed Gust Speed Precip Events Conditions
12:15 AM 31.8 °F 25.4 °F 19.8 °F 61% 30.22 in 10.0 mi WSW 6.9 mph - N/A   Clear
12:35 AM 30.2 °F 22.6 °F 19.4 °F 64% 30.22 in 10.0 mi WSW 8.1 mph - N/A   Clear
12:55 AM 30.7 °F 23.3 °F 19.4 °F 63% 30.21 in 10.0 mi WSW 8.1 mph - N/A   Clear
1:15 AM 29.3 °F 21.5 °F 19.2 °F 66% 30.20 in 10.0 mi WSW 8.1 mph - N/A   Clear
1:35 AM 28.4 °F 20.4 °F 18.7 °F 67% 30.20 in 10.0 mi West 8.1 mph - N/A   Clear
1:55 AM 28.0 °F 20.0 °F 18.1 °F 66% 30.19 in 10.0 mi West 8.1 mph - N/A   Clear
2:15 AM 28.0 °F 20.0 °F 17.2 °F 64% 30.19 in 10.0 mi West 8.1 mph - N/A   Clear
2:35 AM 27.9 °F 19.1 °F 16.2 °F 62% 30.19 in 10.0 mi West 9.2 mph - N/A   Clear
2:55 AM 27.9 °F 18.4 °F 15.6 °F 60% 30.18 in 10.0 mi West 10.4 mph - N/A   Clear
3:20 AM 27.5 °F 18.6 °F 13.6 °F 56% 30.17 in 10.0 mi West 9.2 mph - N/A   Clear
3:35 AM 27.9 °F 19.1 °F 10.8 °F 49% 30.17 in 10.0 mi West 9.2 mph - N/A   Clear
3:55 AM 27.5 °F 18.0 °F 10.9 °F 50% 30.16 in 10.0 mi WSW 10.4 mph - N/A   Clear
4:15 AM 28.0 °F 19.3 °F 12.6 °F 52% 30.16 in 10.0 mi WSW 9.2 mph - N/A   Clear
4:35 AM 27.3 °F 19.1 °F 13.8 °F 57% 30.15 in 10.0 mi West 8.1 mph - N/A   Clear
4:55 AM 28.2 °F 17.7 °F 15.8 °F 60% 30.15 in 10.0 mi WSW 12.7 mph - N/A   Clear
5:15 AM 28.9 °F 18.6 °F 16.3 °F 59% 30.14 in 10.0 mi WSW 12.7 mph - N/A   Clear
5:35 AM 28.2 °F 19.5 °F 17.4 °F 64% 30.14 in 10.0 mi West 9.2 mph - N/A   Clear
5:55 AM 27.9 °F 18.4 °F 18.1 °F 67% 30.14 in 10.0 mi West 10.4 mph 17.3 mph N/A   Clear
6:15 AM 26.6 °F 16.2 °F 16.7 °F 66% 30.14 in 10.0 mi WSW 11.5 mph - N/A   Clear
6:35 AM 27.3 °F 17.1 °F 12.9 °F 55% 30.14 in 10.0 mi WSW 11.5 mph - N/A   Clear
6:55 AM 29.3 °F 18.6 °F 11.8 °F 48% 30.14 in 10.0 mi WSW 13.8 mph - N/A   Clear
7:15 AM 30.4 °F 19.5 °F 10.4 °F 43% 30.13 in 10.0 mi WSW 15.0 mph - N/A   Clear
7:35 AM 28.6 °F 19.9 °F 12.4 °F 51% 30.13 in 10.0 mi West 9.2 mph - N/A   Clear
7:55 AM 28.4 °F 20.4 °F 13.1 °F 53% 30.12 in 10.0 mi West 8.1 mph - N/A   Clear
8:15 AM 28.8 °F 19.5 °F 12.9 °F 52% 30.12 in 10.0 mi West 10.4 mph - N/A   Clear
8:35 AM 30.0 °F 20.5 °F 13.3 °F 50% 30.12 in 10.0 mi WSW 11.5 mph - N/A   Clear
8:55 AM 33.4 °F 24.3 °F 13.6 °F 44% 30.13 in 10.0 mi WSW 12.7 mph - N/A   Clear
9:15 AM 35.4 °F 26.8 °F 12.2 °F 38% 30.13 in 10.0 mi WSW 12.7 mph - N/A   Clear
9:35 AM 37.0 °F 29.8 °F 11.7 °F 35% 30.12 in 10.0 mi West 10.4 mph - N/A   Clear
9:55 AM 38.3 °F 29.3 °F 10.4 °F 32% 30.12 in 10.0 mi WSW 16.1 mph 20.7 mph N/A   Clear
10:15 AM 39.7 °F 31.9 °F 10.6 °F 30% 30.12 in 10.0 mi WSW 13.8 mph 17.3 mph N/A   Clear
10:35 AM 41.4 °F 33.0 °F 10.2 °F 28% 30.11 in 10.0 mi West 17.3 mph 23.0 mph N/A   Clear
11:00 AM 43.0 °F 35.4 °F 9.5 °F 25% 30.10 in 10.0 mi WSW 16.1 mph 24.2 mph N/A   Clear
11:15 AM 43.5 °F 35.8 °F 10.2 °F 26% 30.10 in 10.0 mi West 17.3 mph 24.2 mph N/A   Clear
11:35 AM 44.2 °F 36.4 °F 9.5 °F 24% 30.09 in 10.0 mi West 18.4 mph 25.3 mph N/A   Clear
11:55 AM 45.7 °F 38.3 °F 8.1 °F 22% 30.09 in 10.0 mi West 18.4 mph 27.6 mph N/A   Clear
12:15 PM 46.2 °F 39.0 °F 10.0 °F 23% 30.08 in 10.0 mi West 18.4 mph 27.6 mph N/A   Clear
12:35 PM 46.2 °F 39.0 °F 9.5 °F 23% 30.08 in 10.0 mi West 18.4 mph 26.5 mph N/A   Scattered Clouds
12:55 PM 46.0 °F 38.8 °F 8.2 °F 21% 30.07 in 10.0 mi West 18.4 mph 26.5 mph N/A   Scattered Clouds
1:15 PM 46.4 °F 38.7 °F 6.3 °F 19% 30.07 in 10.0 mi West 20.7 mph 27.6 mph N/A   Scattered Clouds
1:35 PM 46.8 °F - 7.7 °F 20% 30.07 in 10.0 mi West 24.2 mph 28.8 mph N/A   Clear
1:55 PM 47.3 °F - 8.2 °F 20% 30.06 in 10.0 mi West 18.4 mph 29.9 mph N/A   Clear
2:15 PM 48.7 °F - 9.3 °F 20% 30.05 in 10.0 mi West 20.7 mph 28.8 mph N/A   Clear
2:35 PM 48.0 °F - 9.1 °F 21% 30.04 in 10.0 mi West 21.9 mph 32.2 mph N/A   Clear
2:55 PM 48.7 °F - 8.4 °F 20% 30.03 in 10.0 mi West 19.6 mph 32.2 mph N/A   Clear
3:15 PM 48.6 °F - 6.1 °F 18% 30.03 in 10.0 mi West 23.0 mph 32.2 mph N/A   Clear
3:35 PM 48.7 °F - 8.6 °F 20% 30.04 in 10.0 mi West 24.2 mph 32.2 mph N/A   Clear
3:55 PM 49.1 °F - 10.8 °F 21% 30.03 in 10.0 mi West 24.2 mph 31.1 mph N/A   Clear
4:15 PM 48.7 °F - 11.5 °F 22% 30.03 in 10.0 mi West 21.9 mph 28.8 mph N/A   Clear
4:35 PM 48.4 °F - 9.7 °F 21% 30.03 in 10.0 mi WNW 23.0 mph 29.9 mph N/A   Clear
5:00 PM 48.4 °F - 10.2 °F 21% 30.02 in 10.0 mi West 20.7 mph 28.8 mph N/A   Clear
5:15 PM 48.2 °F - 10.0 °F 21% 30.03 in 10.0 mi West 21.9 mph 26.5 mph N/A   Clear
5:35 PM 46.6 °F - 9.3 °F 22% 30.03 in 10.0 mi WNW 18.4 mph 23.0 mph N/A   Clear
5:55 PM 46.6 °F - 9.1 °F 22% 30.03 in 10.0 mi West 17.3 mph 25.3 mph N/A   Clear
6:15 PM 46.4 °F 40.4 °F 10.6 °F 23% 30.03 in 10.0 mi WNW 13.8 mph 21.9 mph N/A   Clear
6:35 PM 43.0 °F 36.0 °F 7.9 °F 24% 30.04 in 10.0 mi WNW 13.8 mph 23.0 mph N/A   Clear
6:55 PM 40.6 °F 36.0 °F 9.5 °F 28% 30.04 in 10.0 mi WNW 6.9 mph - N/A   Clear
7:15 PM 39.7 °F 35.6 °F 10.0 °F 30% 30.05 in 10.0 mi West 5.8 mph - N/A   Clear
7:35 PM 36.9 °F 32.2 °F 11.3 °F 35% 30.06 in 10.0 mi WNW 5.8 mph - N/A   Clear
7:55 PM 34.9 °F 29.9 °F 12.9 °F 40% 30.06 in 10.0 mi WSW 5.8 mph - N/A   Clear
8:15 PM 33.8 °F 27.0 °F 17.2 °F 51% 30.07 in 10.0 mi WSW 8.1 mph - N/A   Clear
8:35 PM 34.5 °F - 16.7 °F 48% 30.08 in 10.0 mi Calm Calm - N/A   Clear
8:55 PM 33.1 °F 26.9 °F 16.3 °F 50% 30.08 in 10.0 mi WSW 6.9 mph - N/A   Clear
9:15 PM 32.0 °F 24.8 °F 17.1 °F 54% 30.08 in 10.0 mi WSW 8.1 mph - N/A   Clear
9:35 PM 32.2 °F 25.0 °F 16.7 °F 53% 30.08 in 10.0 mi West 8.1 mph - N/A   Clear
9:55 PM 32.7 °F 26.4 °F 16.7 °F 52% 30.09 in 10.0 mi WSW 6.9 mph - N/A   Clear
10:15 PM 32.5 °F 25.5 °F 16.2 °F 51% 30.09 in 10.0 mi WSW 8.1 mph - N/A   Clear
10:35 PM 32.0 °F 23.6 °F 16.0 °F 52% 30.09 in 10.0 mi SW 10.4 mph - N/A   Clear
10:55 PM 33.8 °F 26.4 °F 13.5 °F 43% 30.10 in 10.0 mi SW 9.2 mph - N/A   Clear
11:15 PM 33.8 °F 25.3 °F 13.5 °F 43% 30.09 in 10.0 mi WSW 11.5 mph - N/A   Clear
11:35 PM 32.4 °F 26.9 °F 14.7 °F 48% 30.09 in 10.0 mi WSW 5.8 mph - N/A   Clear
11:50 PM 32.4 °F 25.3 °F 14.7 °F 48% 30.09 in 10.0 mi WSW 8.1 mph - N/A   Clear